#timestamp,LO_Frequency,Hit,StdDev 
1545152415.2,286047002.4,N
1545152435.9,286047002.4,N
1545152455.7,286046999.8,N
1545152475.6,286047002.6,N
1545152495.4,286047002.0,N
1545152515.3,286047004.4,Y
1545152535.1,286046998.7,P
1545152536.0,286046998.7,N
1545152555.8,286046998.1,N
1545152575.7,286046998.9,N
1545152595.5,286046996.6,N
1545152615.3,286046998.0,N
1545152635.2,286046995.7,N
1545152655.0,286046995.6,N
1545152655.9,286046995.6,N
1545152675.8,286046995.1,N
1545152695.6,286046993.4,Y
1545152715.4,286046997.7,P
1545152735.3,286046997.5,P
1545152755.1,286046998.0,P
1545152775.9,286046995.6,Y
1545152795.7,286046996.6,P
1545152815.5,286046995.3,P
1545152835.4,286046995.7,P
1545152855.2,286046995.9,Y
1545152875.0,286046998.1,P
1545152876.0,286046998.1,N
1545152895.8,286046998.7,N
1545152915.6,286046999.8,N
1545152935.5,286047002.3,N
1545152955.3,286047002.6,N
1545152975.1,286047002.2,N
1545152995.9,286047002.4,N
1545153015.7,286047002.3,N
1545153035.6,286047000.0,N
1545153055.4,286046998.7,N
1545153075.2,286046998.1,N
1545153095.1,286047010.3,Y
1545153096.0,286047010.3,P
1545153115.8,286047009.1,N
1545153135.7,286047007.2,N
1545153155.5,286047004.6,N
1545153175.3,286047005.6,N
1545153195.2,286047006.9,N
1545153215.9,286047004.5,N
1545153235.7,286047005.4,N
1545153255.6,286047003.6,N
1545153275.4,286047005.4,N
1545153295.3,286047004.6,N
1545153315.1,286047005.8,N
1545153316.0,286047005.8,N
1545153335.8,286047005.5,N
1545153355.7,286047006.8,N
1545153375.5,286047006.2,N
1545153395.3,286047004.7,N
1545153415.2,286047003.2,N
1545153435.0,286047004.1,N
1545153435.9,286047004.1,N
1545153455.8,286047001.6,N
1545153475.6,286047004.3,N
1545153495.4,286047004.1,N
1545153515.3,286047003.9,N
1545153535.1,286047004.1,N
1545153555.8,286047001.4,N
1545153575.7,286047002.4,N
1545153595.5,286047001.8,N
1545153615.4,286047002.1,N
1545153635.2,286047000.5,N
1545153655.0,286046998.4,N
1545153655.9,286046998.4,N
1545153675.8,286046998.7,N
1545153695.6,286046999.7,N
1545153715.5,286046998.2,N
1545153735.3,286046998.8,N
1545153755.1,286046999.3,N
1545153775.9,286046998.8,N
1545153795.7,286046998.4,N
1545153815.5,286046998.5,N
1545153835.4,286046999.9,N
1545153855.2,286047000.1,N
1545153875.1,286047000.5,N
1545153876.0,286047000.5,N
1545153895.8,286047000.9,N
1545153915.6,286047001.1,N
1545153935.5,286047002.8,N
1545153955.3,286046998.8,N
1545153975.1,286046998.9,N
1545153995.9,286046999.3,N
1545154015.7,286046996.9,N
1545154035.6,286046998.8,N
1545154055.4,286046996.9,N
1545154075.2,286046998.7,N
1545154095.1,286046998.9,N
1545154096.0,286046998.9,N
1545154115.8,286046998.8,N
1545154135.7,286046999.5,N
1545154155.5,286046996.8,N
1545154175.3,286046997.5,N
1545154195.2,286046996.8,N
1545154215.0,286046996.9,N
1545154215.9,286046996.9,N
1545154235.7,286046996.6,N
1545154255.6,286046998.9,N
1545154275.4,286046999.2,N
1545154295.3,286046998.7,N
1545154315.1,286046998.9,N
1545154316.0,286046998.9,N
1545154335.8,286046999.1,N
1545154355.7,286046999.3,N
1545154375.5,286046999.6,N
1545154395.4,286046994.9,Y
1545154415.2,286046998.3,P
1545154435.0,286046998.4,P
1545154435.9,286046998.4,P
1545154455.8,286046999.3,Y
1545154475.6,286047000.3,P
1545154495.5,286047002.2,N
1545154515.3,286046999.7,N
1545154535.1,286047000.5,N
1545154555.9,286047000.2,N
1545154575.7,286047002.5,N
1545154595.5,286047002.5,N
1545154615.4,286047002.2,N
1545154635.2,286047001.7,N
1545154655.1,286047003.4,N
1545154656.0,286047003.4,N
1545154675.8,286047003.4,N
1545154695.6,286047003.1,N
1545154715.5,286047006.0,Y
1545154735.3,286047004.4,P
1545154755.1,286047003.8,N
1545154775.9,286047005.4,P
1545154795.7,286047005.5,Y
1545154815.6,286046999.7,P
1545154835.4,286047000.3,N
1545154855.2,286047002.4,N
1545154875.1,286047000.4,N
1545154876.0,286047000.4,N
1545154895.8,286046999.7,N
1545154915.7,286047000.6,N
1545154935.5,286047000.7,N
1545154955.3,286047000.4,N
1545154975.2,286046999.7,N
1545154995.0,286047002.2,N
1545154995.9,286047002.2,N
1545155015.8,286047002.0,N
1545155035.6,286047002.2,N
1545155055.4,286047004.4,Y
1545155075.3,286047002.8,P
1545155095.1,286046999.8,N
1545155115.8,286047000.2,N
1545155135.7,286047000.5,N
1545155155.5,286047002.1,N
1545155175.4,286047000.4,N
1545155195.2,286047000.3,N
1545155215.0,286047002.6,N
1545155215.9,286047002.6,N
1545155235.8,286047002.0,N
1545155255.6,286047001.5,N
1545155275.5,286047002.2,N
1545155295.3,286047001.9,N
1545155315.1,286047001.4,N
1545155335.9,286047001.4,N
1545155355.7,286047001.3,N
1545155375.5,286047004.3,Y
1545155395.4,286047000.3,P
1545155415.2,286047001.3,N
1545155435.1,286047001.6,P
1545155436.0,286047001.6,Y
1545155455.8,286047002.8,P
1545155475.6,286047002.2,N
1545155495.5,286047004.4,P
1545155515.3,286047002.0,N
1545155535.2,286047002.2,N
1545155555.9,286046999.7,N
1545155575.7,286047002.6,N
1545155595.6,286047002.0,N
1545155615.4,286047002.2,N
1545155635.2,286047002.6,N
1545155655.1,286047002.6,N
1545155656.0,286047002.6,N
1545155675.8,286047002.2,N
1545155695.7,286047002.1,N
1545155715.5,286047002.1,N
1545155735.3,286047002.3,N
1545155755.2,286046999.7,N
1545155775.0,286047002.0,N
1545155775.9,286047002.0,N
1545155795.7,286047001.7,N
1545155815.6,286047002.2,N
1545155835.4,286047001.9,N
1545155855.3,286047004.4,Y
1545155875.1,286047000.0,P
1545155876.0,286047000.0,N
1545155895.8,286047000.4,N
1545155915.7,286047000.4,N
1545155935.5,286047000.7,N
1545155955.3,286046998.7,N
1545155975.2,286047002.3,N
1545155995.0,286047000.6,N
1545155995.9,286047000.6,N
